www.pogodaiklimat.ru

АРХИВ ПОГОДЫ в Нью-Йорке Сити

Время (UTC), дата Ветер
(напр.,м/с)
 
Видим.   Явления Облачность Т
(С)
Тd
(С)
f
(%)
Тe
(С)
Тes
(С)
Комфортность

P
(гПа)

Po
(гПа)
Тmin
(С)
Tmax
(С)
R
(мм)
SD
(см)
11:22 16.06 В  2 км  слабый дождь, дымка  10/8 1500 м
[средняя] 
+19.4  +18.3  93  +22  +23  комфорт    1004.4         
11:40 16.06 штиль  5 км  слабый дождь, дымка  10/8 1650 м
[средняя] 
+18.9  +17.8  93  +20  +20      1004.4         
11:51 16.06 СВ  5 км  дымка  10/2 1650 м
[средняя] 
+18.9  +17.8  93  +21  +21  комфорт  1009.0  1004.1  +18.9  +22.8  5.1   
12:00 16.06 штиль  3 км  дымка  10/2 1650 м
[средняя] 
+18.9  +17.8  93  +20  +22      1004.4         
12:24 16.06 СВ  4 км  дымка  10/5 1800 м
[средняя] 
+19.4  +18.3  93  +22  +23  комфорт    1004.4         
12:43 16.06     8 км  дымка  10/2 1800 м
[средняя] 
+18.9  +17.8  93  +20  +22      1004.1         
12:51 16.06 В  6 км  дымка  10/2 1800 м
[средняя] 
+19.4  +17.8  90  +22  +23  комфорт  1009.0  1004.1         
13:51 16.06 штиль  8 км  дымка  10/0 2100 м
[средняя] 
+19.4  +17.8  90  +21  +25  комфорт  1008.3  1003.4         
14:51 16.06 штиль  13 км    10/0 2400 м
[средняя] 
+20.6  +17.8  84  +24  +29  комфорт  1008.6  1003.8         
15:51 16.06 В  13 км    10/0 2250 м
[средняя] 
+21.1  +16.1  73  +24  +29  комфорт  1008.8  1004.1         
16:51 16.06 нст  13 км    10/0 2400 м
[средняя] 
+21.7  +15.6  68  +25  +31  комфорт  1008.8  1004.1         
17:51 16.06 штиль  5 км  дождь  10/5 1650 м
[средняя] 
+20.0  +15.6  76  +22  +26  комфорт  1009.1  1004.4  +18.3  +21.7     
18:51 16.06 штиль  10 км  дымка  10/0 2400 м
[средняя] 
+19.4  +17.8  90  +21  +29  комфорт  1008.6  1003.8         
19:51 16.06 штиль  13 км    10/0 2400 м
[средняя] 
+20.6  +16.1  75  +23  +30  комфорт  1008.4  1003.8         
20:51 16.06 нст  13 км    10/0 2550 м
[средняя] 
+22.2  +15.6  66  +26  +30  душно  1007.6  1002.7      0.5   
21:51 16.06 СВ  13 км    10/0 2250 м
[средняя] 
+22.2  +15.6  66  +26  +29  душно  1006.8  1002.1         
22:51 16.06 штиль  14 км    10/0 2250 м
[средняя] 
+22.2  +14.4  61  +25  +27  комфорт  1006.7  1002.1         
23:51 16.06 штиль  13 км    10/0 2400 м
[средняя] 
+21.7  +15.6  68  +25  +26  комфорт  1007.4  1002.7  +19.4  +22.8  0.5   
00:51 17.06 штиль  16 км    8/0 2550 м
[средняя] 
+21.1  +14.4  66  +24  +24  комфорт  1007.4  1002.7         
01:51 17.06 СВ  14 км    ясно  +20.6  +14.4  68  +24  +24  комфорт  1007.7  1002.7         
02:51 17.06 СВ  16 км    ясно  +20.0  +13.3  65  +23  +23  комфорт  1008.2  1003.4         
03:51 17.06 штиль  14 км    ясно  +20.0  +13.3  65  +22  +22  комфорт  1008.3  1003.4         
04:51 17.06 штиль  14 км    8/0 3300 м
[средняя] 
+20.6  +13.9  65  +23  +23  комфорт  1008.7  1004.1         
05:51 17.06 штиль  13 км    2/0 3300 м
[средняя] 
+20.0  +15.0  73  +22  +22  комфорт  1008.9  1004.1  +20.0  +22.2     
06:51 17.06 штиль  14 км    ясно  +20.0  +14.4  70  +22  +22  комфорт  1008.8  1004.1         
07:51 17.06 штиль  14 км    ясно  +19.4  +15.0  76  +21  +21  комфорт  1009.0  1004.1         
08:51 17.06 СВ  14 км    ясно  +18.9  +15.6  81  +21  +21  комфорт  1009.0  1004.1         
09:51 17.06 штиль  13 км    ясно  +18.3  +15.6  84  +19  +19    1009.7  1004.8         
10:51 17.06 штиль  14 км    8/0 2850 м
[средняя] 
+19.4  +14.4  73  +21  +21  комфорт  1010.6  1005.8         
11:51 17.06 нст  16 км    ясно  +21.1  +13.3  61  +23  +25  комфорт  1011.3  1006.4  +17.8  +21.1     
12:51 17.06 нст  14 км    ясно  +21.7  +13.3  59  +24  +28  комфорт  1012.1  1007.1         
13:51 17.06 В  14 км    ясно  +22.2  +13.9  59  +25  +32  комфорт  1012.7  1007.8         
14:51 17.06 СВ  11 км    2/0 3000 м
[средняя] 
+21.7  +15.0  66  +25  +32  комфорт  1013.5  1008.8         
15:51 17.06 СВ  11 км    ясно  +23.3  +15.0  60  +27  +41  душно  1014.3  1009.5         
16:51 17.06 СВ  13 км    2/2 960 м  +23.3  +15.0  60  +27  +36  душно  1014.8  1009.8         
17:51 17.06 СВ  16 км    2/2 1500 м  +22.2  +12.2  53  +25  +30  комфорт  1015.3  1010.5  +21.1  +24.4     
18:51 17.06 В  16 км    ясно  +24.4  +12.2  46  +26  +40  жарко  1015.4  1010.5         
19:51 17.06 нст  16 км    2/2 1470 м  +24.4  +10.0  40  +25  +37  комфорт  1015.5  1010.8         
20:51 17.06 ЮВ  16 км    ясно  +23.9  +8.3  37  +24  +32  комфорт  1016.0  1011.2         
21:51 17.06 нст  16 км    ясно  +22.2  +7.2  38  +23  +30  комфорт  1016.1  1011.2         
22:51 17.06 нст  16 км    ясно  +21.1  +5.6  36  +22  +25  комфорт  1017.0  1012.2         
23:51 17.06     16 км    ясно  +20.0  +7.8  45  +21  +23  комфорт  1017.4  1012.5  +20.0  +25.6     
00:51 18.06 нст  16 км    ясно  +18.9  +9.4  54  +20  +20    1018.1  1013.2         
01:51 18.06 Ю  16 км    ясно  +18.3  +8.3  52  +19  +19    1019.3  1014.5         
02:51 18.06 нст  16 км    ясно  +17.8  +8.3  54  +19  +19    1019.6  1014.9         
03:51 18.06 Ю  16 км    ясно  +17.2  +8.9  58  +18  +18    1020.0  1015.2         
04:51 18.06 нст  16 км    ясно  +17.2  +8.9  58  +17  +17    1020.2  1015.2         
05:51 18.06 З  16 км    ясно  +17.2  +8.9  58  +17  +17    1020.1  1015.2  +17.2  +20.0     

 

Местоположение метеостанции Central Park: широта 40.7833 долгота -73.9667 высота над уровнем моря 47 м.

В архиве по умолчанию представлена погода в Нью-Йорке Сити за последние 1-2 суток. Обновление информации о фактической погоде в базе происходит ежечасно! Архивные данные за месяц целиком и за предыдущие месяцы Вы можете получить, выбрав интересующий диапазон дат из раскрывающегося списка и нажав кнопку "Ввод!".

Внимание! Архив погоды МЕТАР в базе сайта в настоящее время начинается c 1 января 2013 г. Нет смысла пытаться выбрать более раннюю дату.

Внимание! Время в таблицах - всемирное. Для получения местного времени необходимо прибавить поправку, которая в Нью-Йорке Сити равна -5 ч.

Ветер - указаны скорость ветра в м/с и направление, откуда дует ветер: С - северный, СВ - северо-восточный, В - восточный, ЮВ - юго-восточный, Ю - южный, ЮЗ - юго-западный, З - западный, СЗ - северо-западный.
Видимость - горизонтальная дальность видимости в метрах или километрах. При видимости от 1 до 10 км при отсутствии осадков обычно наблюдается дымка, при ухудшении видимости до 1 км и менее - туман. В сухую погоду видимость может ухудшаться дымом, пылью или мглою.
Атмосферные явления - указаны явления, наблюдавшиеся в указанный момент времени.
Облачность - указаны через наклонную черту верхняя и нижняя облачность в баллах и высота нижней границы облаков в метрах. Внимание: облачность, как и прочие метеорологические величины в США измеряются автоматическими метеостанциями. Указанные значения в баллах носят условный характер и показывают процент времени, в течение которого, в среднем, лазерный луч высотомера отражался от облаков обратно.
T - Температура воздуха - температура, измеренная на высоте 2 м над землей.
Td - Температура точки росы - температура, при понижении до которой содержащийся в воздухе водяной пар достигнет насыщения.
f - Относительная влажность воздуха - влажноcть воздуха, измеренная на высоте 2 м над землей.
Te - Эффективная температура - температура, которую ощущает одетый по сезону человек в тени. Характеристика душности погоды. При расчете учитывается влияние влажности воздуха и скорости ветра на теплоощущения человека.
Tes - Эффективная температура на солнце - температура, которую ощущает человек, с поправкой на солнечный нагрев. Характеристика знойности погоды. Зависит от высоты солнца над горизонтом, облачности и скорости ветра. Ночью, в пасмурную погоду, а также при ветре 12 м/с и более поправка равна нулю.
P - Атмосферное давление - приведенное к уровню моря атмосферное давление.
Po - Атмосферное давление - измеренное на уровне метеостанции атмосферное давление.
Tmin - Минимальная температура - минимум температуры воздуха на высоте 2 м над землей.
Tmax - Максимальная температура - максимум температуры воздуха на высоте 2 м над землей.
R - Количество осадков - Количество выпавших осадков за 3 или 6 часов, мм.
SD - Снежный покров - Высота снежного покрова, см.